Time_in_sec,gx,gy,gz
1323446505.55316353,0.00347588,0.02275886,-0.99973494
1323446505.59354544,0.00333017,0.02260587,-0.99973891
1323446505.65651703,0.00337529,0.02261436,-0.99973856
1323446505.70275974,0.00325639,0.02249443,-0.99974166
1323446505.75353813,0.00327826,0.02262693,-0.99973860
1323446505.80550647,0.00250977,0.02227932,-0.99974863
1323446505.84565687,0.00267191,0.02228656,-0.99974805
1323446505.89420867,0.00266580,0.02257766,-0.99974154
1323446505.95259786,0.00247942,0.02237667,-0.99974654
1323446506.00455928,0.00235537,0.02241407,-0.99974600
1323446506.05253577,0.00195163,0.02188136,-0.99975867
1323446506.10154915,0.00208758,0.02220336,-0.99975130
1323446506.14454126,0.00222632,0.02218883,-0.99975132
1323446506.20556521,0.00226860,0.02227261,-0.99974936
1323446506.24565578,0.00227197,0.02252195,-0.99974377
1323446506.29421592,0.00231792,0.02208144,-0.99975349
1323446506.35265112,0.00223504,0.02234264,-0.99974787
1323446506.39353395,0.00227374,0.02225716,-0.99974969
1323446506.45115089,0.00211652,0.02234501,-0.99974808
1323446506.49276829,0.00218834,0.02241177,-0.99974643
1323446506.54555750,0.00233054,0.02174598,-0.99976081
1323446506.60556436,0.00221290,0.02171104,-0.99976184
1323446506.65253854,0.00214761,0.02170599,-0.99976209
1323446506.69370675,0.00188495,0.02170058,-0.99976274
1323446506.75250745,0.00187248,0.02189086,-0.99975861
1323446506.79279685,0.00213315,0.02156130,-0.99976525
1323446506.85661674,0.00201143,0.02150306,-0.99976676
1323446506.90555191,0.00180702,0.02114228,-0.99977484
1323446506.95351100,0.00168281,0.02102112,-0.99977762
1323446506.99255323,0.00175559,0.02129573,-0.99977168
1323446507.05249739,0.00230165,0.02043643,-0.99978850
1323446507.09373736,0.00219822,0.02020344,-0.99979347
1323446507.14551687,0.00230497,0.02001157,-0.99979709
1323446507.19353247,0.00223334,0.01998841,-0.99979772
1323446507.25114298,0.00213636,0.01986336,-0.99980042
1323446507.29307580,0.00330000,0.01918895,-0.99981043
1323446507.34565306,0.00340218,0.01921924,-0.99980950
1323446507.40554619,0.00337064,0.01909797,-0.99981194
1323446507.44565177,0.00323131,0.01903310,-0.99981363
1323446507.49393773,0.00312416,0.01912089,-0.99981230
1323446507.55264235,0.00337432,0.01907435,-0.99981237
1323446507.59354067,0.00339912,0.01903191,-0.99981310
1323446507.64264488,0.00356181,0.01898849,-0.99981336
1323446507.69364595,0.00350631,0.01910418,-0.99981135
1323446507.74465489,0.00346438,0.01916586,-0.99981032
1323446507.79253507,0.00414371,0.01895305,-0.99981179
1323446507.85285401,0.00396164,0.01908321,-0.99981005
1323446507.90596676,0.00391887,0.01920817,-0.99980783
1323446507.94563627,0.00383329,0.01927065,-0.99980696
1323446507.99257135,0.00371542,0.01909040,-0.99981086
1323446508.04152417,0.00422452,0.01851008,-0.99981975
1323446508.09303689,0.00389903,0.01860040,-0.99981940
1323446508.14451814,0.00379900,0.01863481,-0.99981914
1323446508.19253445,0.00388589,0.01893613,-0.99981314
1323446508.24150562,0.00359666,0.01897076,-0.99981357
1323446508.29351902,0.00394448,0.01824873,-0.99982570
1323446508.34555912,0.00392412,0.01816809,-0.99982725
1323446508.39255643,0.00418571,0.01804942,-0.99982833
1323446508.45475888,0.00390250,0.01790411,-0.99983209
1323446508.49365520,0.00370321,0.01782197,-0.99983432
1323446508.54157043,0.00347199,0.01712927,-0.99984726
1323446508.59349132,0.00357172,0.01711688,-0.99984712
1323446508.64450264,0.00369490,0.01691247,-0.99985015
1323446508.70450330,0.00358155,0.01725609,-0.99984469
1323446508.74452424,0.00377826,0.01723660,-0.99984430
1323446508.79256201,0.00320180,0.01735349,-0.99984429
1323446508.84422898,0.00288055,0.01749844,-0.99984274
1323446508.89323449,0.00284955,0.01761255,-0.99984083
1323446508.94450617,0.00284780,0.01783260,-0.99983693
1323446508.99352813,0.00286248,0.01793651,-0.99983503
1323446509.04522538,0.00214504,0.01809506,-0.99983397
1323446509.09356022,0.00219593,0.01815650,-0.99983275
1323446509.14564157,0.00234622,0.01819639,-0.99983168
1323446509.19252849,0.00243068,0.01818774,-0.99983163
1323446509.24612999,0.00240524,0.01828747,-0.99982988
1323446509.29414678,0.00203437,0.01833142,-0.99982990
1323446509.34564185,0.00222894,0.01837208,-0.99982873
1323446509.40452504,0.00211913,0.01846600,-0.99982724
1323446509.44564080,0.00220269,0.01840166,-0.99982825
1323446509.49422073,0.00207974,0.01817817,-0.99983260
1323446509.54451346,0.00202775,0.01760737,-0.99984292
1323446509.59254122,0.00212667,0.01768335,-0.99984138
1323446509.64451289,0.00205763,0.01789161,-0.99983782
1323446509.69354486,0.00188433,0.01794414,-0.99983722
1323446509.74564934,0.00187831,0.01803221,-0.99983564
1323446509.80143833,0.00175259,0.01792109,-0.99983787
1323446509.84455919,0.00159792,0.01788555,-0.99983876
1323446509.89259291,0.00154415,0.01776632,-0.99984097
1323446509.94531655,0.00170756,0.01784071,-0.99983938
1323446509.99355388,0.00162959,0.01771389,-0.99984177
1323446510.04590535,0.00110006,0.01845731,-0.99982904
1323446510.09256196,0.00095434,0.01842628,-0.99982977
1323446510.14532042,0.00076503,0.01849961,-0.99982857
1323446510.19248986,0.00085898,0.01851248,-0.99982826
1323446510.24451947,0.00074913,0.01851000,-0.99982839
1323446510.29388976,0.00089248,0.01876103,-0.99982360
1323446510.34560680,0.00070151,0.01884106,-0.99982225
1323446510.39255095,0.00054405,0.01902438,-0.99981887
1323446510.44263530,0.00070608,0.01893728,-0.99982042
1323446510.49253774,0.00048828,0.01891893,-0.99982090
1323446510.54168558,0.00029345,0.01906446,-0.99981821
1323446510.59249067,-0.00000138,0.01911711,-0.99981725
1323446510.64463067,-0.00006436,0.01930170,-0.99981370
1323446510.70516729,0.00003489,0.01921426,-0.99981539
1323446510.74561954,-0.00032156,0.01928017,-0.99981407
1323446510.79257059,-0.00062827,0.01960231,-0.99980766
1323446510.84154916,-0.00052871,0.01980495,-0.99980372
1323446510.89346170,-0.00086762,0.01994766,-0.99980065
1323446510.94164085,-0.00073245,0.02007553,-0.99979820
1323446511.00448561,-0.00068612,0.02018138,-0.99979610
1323446511.04453063,-0.00034641,0.02044700,-0.99979088
1323446511.10172272,-0.00018258,0.02030375,-0.99979384
1323446511.14150620,-0.00013404,0.02018332,-0.99979629
1323446511.19341207,-0.00002064,0.02036455,-0.99979262
1323446511.24178481,-0.00027031,0.02046014,-0.99979063
1323446511.29278326,-0.00010760,0.02072859,-0.99978513
1323446511.34155536,-0.00025590,0.02073478,-0.99978498
1323446511.39253449,-0.00030627,0.02070464,-0.99978559
1323446511.44450068,-0.00024017,0.02052813,-0.99978925
1323446511.49442935,-0.00028445,0.02055627,-0.99978866
1323446511.54152989,-0.00034335,0.02095086,-0.99978045
1323446511.59254432,-0.00048134,0.02088740,-0.99978172
1323446511.64337897,-0.00047092,0.02078118,-0.99978394
1323446511.69443798,-0.00036663,0.02065134,-0.99978667
1323446511.74454045,-0.00037536,0.02058456,-0.99978804
1323446511.79257226,-0.00044972,0.02075860,-0.99978442
1323446511.84455061,-0.00051840,0.02066488,-0.99978632
1323446511.89429760,-0.00014572,0.02074434,-0.99978480
1323446511.94230485,-0.00008929,0.02079871,-0.99978368
1323446511.99312592,-0.00027793,0.02109580,-0.99977742
1323446512.04212022,0.00028779,0.02125651,-0.99977401
1323446512.09355617,0.00026707,0.02158553,-0.99976697
1323446512.14564180,0.00046861,0.02160659,-0.99976644
1323446512.20478535,0.00043258,0.02164167,-0.99976570
1323446512.24558306,-0.00002971,0.02208199,-0.99975616
1323446512.29396272,-0.00044130,0.02209338,-0.99975581
1323446512.34462428,-0.00055555,0.02230278,-0.99975111
1323446512.39256239,-0.00038311,0.02229415,-0.99975138
1323446512.44228482,-0.00011038,0.02239945,-0.99974909
1323446512.49318933,-0.00019691,0.02247241,-0.99974744
1323446512.54555082,0.00000931,0.02282415,-0.99973950
1323446512.59252191,0.00015379,0.02294953,-0.99973661
1323446512.64566016,0.00020269,0.02286493,-0.99973854
1323446512.69251609,0.00018312,0.02257056,-0.99974524
1323446512.74551487,0.00013176,0.02264929,-0.99974346
1323446512.79251766,0.00006984,0.02198134,-0.99975838
1323446512.84185910,0.00006281,0.02197162,-0.99975859
1323446512.89259696,0.00015711,0.02183754,-0.99976152
1323446512.94566107,-0.00005597,0.02180351,-0.99976227
1323446513.00450277,-0.00003937,0.02175231,-0.99976339
1323446513.04463410,0.00060832,0.02131693,-0.99977258
1323446513.09383321,0.00060977,0.02140886,-0.99977062
1323446513.14452147,0.00060814,0.02130004,-0.99977294
1323446513.19254327,0.00067975,0.02117405,-0.99977557
1323446513.24322987,0.00070842,0.02113945,-0.99977629
1323446513.29352260,0.00076595,0.02164659,-0.99976539
1323446513.34462786,0.00070008,0.02162545,-0.99976590
1323446513.39250755,0.00046544,0.02160511,-0.99976647
1323446513.44464350,0.00057835,0.02153456,-0.99976794
1323446513.49370670,0.00062172,0.02137759,-0.99977128
1323446513.54565787,0.00052372,0.02069754,-0.99978565
1323446513.59263206,0.00065192,0.02090959,-0.99978116
1323446513.64157438,0.00086261,0.02090053,-0.99978119
1323446513.69354439,0.00067801,0.02086792,-0.99978201
1323446513.74159551,0.00077013,0.02059659,-0.99978757
1323446513.79250932,0.00125604,0.01992157,-0.99980076
1323446513.84164572,0.00104421,0.01987644,-0.99980190
1323446513.89354348,0.00113782,0.01995049,-0.99980032
1323446513.94449282,0.00111641,0.02003551,-0.99979865
1323446513.99330068,0.00110964,0.01998334,-0.99979970
1323446514.04155326,0.00116586,0.01987296,-0.99980183
1323446514.10150838,0.00118406,0.01997554,-0.99979977
1323446514.14153218,0.00092853,0.01975484,-0.99980442
1323446514.20847845,0.00097250,0.01951458,-0.99980910
1323446514.24156308,0.00108644,0.01975160,-0.99980433
1323446514.29447937,0.00116393,0.01992808,-0.99980074
1323446514.34150243,0.00126161,0.02024357,-0.99979428
1323446514.39357138,0.00131518,0.02018592,-0.99979538
1323446514.44165254,0.00127388,0.02032212,-0.99979267
1323446514.49326611,0.00110852,0.02047549,-0.99978974
1323446514.54164982,0.00096702,0.02005602,-0.99979839
1323446514.60133839,0.00094346,0.02007426,-0.99979805
1323446514.64164829,0.00079672,0.02017235,-0.99979620
1323446514.69251800,0.00087896,0.02018175,-0.99979594
1323446514.74228239,0.00068420,0.02036756,-0.99979233
1323446514.79324389,0.00111925,0.02065640,-0.99978601
1323446514.84528041,0.00109326,0.02069960,-0.99978514
1323446514.89250445,0.00127842,0.02067797,-0.99978537
1323446514.94164586,0.00138106,0.02093550,-0.99977987
1323446515.00566411,0.00142672,0.02095058,-0.99977949
1323446515.04564714,0.00126861,0.02053583,-0.99978831
1323446515.09365058,0.00115946,0.02059427,-0.99978724
1323446515.14164138,0.00106524,0.02062637,-0.99978669
1323446515.19354820,0.00109136,0.02080182,-0.99978302
1323446515.24220252,0.00101850,0.02062243,-0.99978682
1323446515.29343271,0.00144154,0.01976236,-0.99980367
1323446515.34505963,0.00133349,0.01989685,-0.99980115
1323446515.39252663,0.00125473,0.01985265,-0.99980213
1323446515.44462943,0.00133237,0.01988802,-0.99980133
1323446515.49378872,0.00109087,0.01981855,-0.99980300
1323446515.54451990,0.00124524,0.01889581,-0.99982068
1323446515.59253597,0.00130689,0.01889560,-0.99982061
1323446515.64905524,0.00132201,0.01904252,-0.99981780
1323446515.69321394,0.00123885,0.01904878,-0.99981779
1323446515.74565220,0.00117678,0.01891644,-0.99982038
1323446515.79651284,0.00084605,0.01719070,-0.99985187
1323446515.84452915,0.00103109,0.01704467,-0.99985420
1323446515.89249873,0.00101658,0.01711221,-0.99985306
1323446515.94553781,0.00089417,0.01702649,-0.99985464
1323446515.99256158,0.00069478,0.01705833,-0.99985425
1323446516.04186034,0.00164292,0.01499368,-0.99988624
1323446516.09277916,0.00172443,0.01482521,-0.99988861
1323446516.14567876,0.00153013,0.01486545,-0.99988833
1323446516.19253492,0.00153111,0.01520845,-0.99988317
1323446516.24455380,0.00153918,0.01511390,-0.99988459
1323446516.29254293,0.00185211,0.01345631,-0.99990774
1323446516.34565496,0.00184430,0.01343635,-0.99990803
1323446516.39255404,0.00191071,0.01333034,-0.99990932
1323446516.44449139,0.00206134,0.01325648,-0.99991000
1323446516.49263906,0.00201353,0.01317855,-0.99991113
1323446516.54165792,0.00253073,0.01220856,-0.99992227
1323446516.59354615,0.00254880,0.01216921,-0.99992270
1323446516.64468288,0.00249790,0.01215317,-0.99992303
1323446516.69363761,0.00266216,0.01200544,-0.99992439
1323446516.74453640,0.00267990,0.01198788,-0.99992455
1323446516.79254770,0.00245742,0.01240074,-0.99992009
1323446516.84561396,0.00237133,0.01233015,-0.99992117
1323446516.89352059,0.00256737,0.01216789,-0.99992267
1323446516.94551349,0.00265575,0.01207364,-0.99992358
1323446516.99242353,0.00261640,0.01232731,-0.99992059
1323446517.04553246,0.00187952,0.01268269,-0.99991781
1323446517.09451675,0.00182011,0.01258977,-0.99991909
1323446517.14551806,0.00181269,0.01268201,-0.99991794
1323446517.19252849,0.00184804,0.01277543,-0.99991668
1323446517.24200368,0.00172454,0.01295066,-0.99991465
1323446517.29310036,0.00136333,0.01388164,-0.99990272
1323446517.34170675,0.00126542,0.01372071,-0.99990507
1323446517.39672923,0.00122851,0.01396612,-0.99990171
1323446517.44464946,0.00122877,0.01389298,-0.99990273
1323446517.49477434,0.00119783,0.01388970,-0.99990282
1323446517.54553151,0.00144197,0.01395700,-0.99990156
1323446517.59253693,0.00157660,0.01371638,-0.99990468
1323446517.64166355,0.00153442,0.01380262,-0.99990356
1323446517.69249964,0.00155569,0.01382917,-0.99990316
1323446517.74458742,0.00133933,0.01404789,-0.99990043
1323446517.79267168,0.00136238,0.01491326,-0.99988786
1323446517.84466004,0.00132597,0.01481198,-0.99988942
1323446517.89419532,0.00137375,0.01505171,-0.99988577
1323446517.94152689,0.00164041,0.01495558,-0.99988681
1323446517.99254990,0.00150191,0.01508852,-0.99988503
1323446518.04354954,0.00104492,0.01570937,-0.99987605
1323446518.09357023,0.00098742,0.01568479,-0.99987650
1323446518.14163828,0.00093589,0.01586763,-0.99987366
1323446518.19253135,0.00078663,0.01582613,-0.99987445
1323446518.24565721,0.00091715,0.01568779,-0.99987652
1323446518.29406190,0.00106177,0.01698566,-0.99985517
1323446518.34166241,0.00089361,0.01679505,-0.99985855
1323446518.39340687,0.00098745,0.01695138,-0.99985583
1323446518.44390130,0.00116008,0.01704221,-0.99985410
1323446518.49355459,0.00123965,0.01704566,-0.99985394
1323446518.54455495,-0.00001839,0.01739250,-0.99984874
1323446518.59258008,-0.00000317,0.01733527,-0.99984973
1323446518.64451122,-0.00013831,0.01738644,-0.99984883
1323446518.69249630,-0.00017444,0.01740986,-0.99984842
1323446518.74453139,-0.00033305,0.01761962,-0.99984471
1323446518.79256368,-0.00138309,0.01771486,-0.99984212
1323446518.84189749,-0.00142595,0.01771049,-0.99984214
1323446518.89300871,-0.00144892,0.01781470,-0.99984026
1323446518.94568753,-0.00135052,0.01783598,-0.99984001
1323446518.99251151,-0.00181984,0.01806261,-0.99983520
1323446519.04473090,-0.00184583,0.01799678,-0.99983634
1323446519.09359694,-0.00157012,0.01820132,-0.99983311
1323446519.15356684,-0.00162715,0.01820541,-0.99983294
1323446519.19281793,-0.00162351,0.01818734,-0.99983328
1323446519.24449539,-0.00169517,0.01829253,-0.99983124
1323446519.29262495,-0.00192399,0.01859185,-0.99982531
1323446519.34455705,-0.00206865,0.01866238,-0.99982370
1323446519.39251208,-0.00195925,0.01857579,-0.99982554
1323446519.44465280,-0.00199520,0.01839964,-0.99982872
1323446519.49364448,-0.00212791,0.01845593,-0.99982741
1323446519.54457593,-0.00145035,0.01895748,-0.99981924
1323446519.59256411,-0.00149181,0.01910905,-0.99981629
1323446519.64470124,-0.00160648,0.01895348,-0.99981908
1323446519.69251251,-0.00168747,0.01905672,-0.99981698
1323446519.74456477,-0.00133399,0.01938567,-0.99981119
1323446519.79251814,-0.00113656,0.01931873,-0.99981273
1323446519.84216404,-0.00112221,0.01934093,-0.99981232
1323446519.89400268,-0.00105588,0.01952058,-0.99980890
1323446519.94161844,-0.00107079,0.01958521,-0.99980762
1323446519.99253559,-0.00078593,0.01968466,-0.99980593
1323446520.04228401,-0.00074335,0.01960535,-0.99980752
1323446520.09268975,-0.00077731,0.01966713,-0.99980628
1323446520.14162874,-0.00064261,0.01967305,-0.99980626
1323446520.19656754,-0.00051044,0.01987773,-0.99980229
1323446520.24452305,-0.00045988,0.02017737,-0.99979631
1323446520.29435873,-0.00039958,0.02032100,-0.99979343
1323446520.34164834,-0.00029408,0.02035736,-0.99979272
1323446520.39336109,-0.00039668,0.02016221,-0.99979664
1323446520.44298697,-0.00052688,0.01992746,-0.99980129
1323446520.49355507,-0.00055648,0.01988046,-0.99980221
1323446520.54165125,-0.00038941,0.02013546,-0.99979719
1323446520.59286761,-0.00042926,0.02027715,-0.99979431
1323446520.64452076,-0.00035364,0.02022250,-0.99979544
1323446520.69253230,-0.00039421,0.02035589,-0.99979272
1323446520.74156928,-0.00071146,0.02056457,-0.99978827
1323446520.79252481,-0.00079976,0.02067507,-0.99978593
1323446520.84148765,-0.00072803,0.02078336,-0.99978374
1323446520.89423752,-0.00103368,0.02062346,-0.99978678
1323446520.94165182,-0.00083310,0.02068406,-0.99978571
1323446521.00451827,-0.00058050,0.02064890,-0.99978662
1323446521.04163980,-0.00063199,0.02056403,-0.99978834
1323446521.09407997,-0.00059911,0.02061815,-0.99978724
1323446521.14152455,-0.00053862,0.02057564,-0.99978815
1323446521.19253230,-0.00047451,0.02043459,-0.99979108
1323446521.24451303,-0.00055613,0.02038839,-0.99979198
1323446521.29322505,-0.00059720,0.02032766,-0.99979319
1323446521.34565043,-0.00078927,0.02045438,-0.99979048
1323446521.39253306,-0.00093289,0.02054722,-0.99978845
1323446521.44152260,-0.00090270,0.02067298,-0.99978588
1323446521.49406743,-0.00088431,0.02041080,-0.99979129
1323446521.54450226,-0.00056400,0.02039417,-0.99979186
1323446521.59254122,-0.00053260,0.02048420,-0.99979003
1323446521.64192724,-0.00051901,0.02037478,-0.99979228
1323446521.69356084,-0.00063067,0.02046526,-0.99979037
1323446521.74110007,-0.00065733,0.02045368,-0.99979059
1323446521.79251695,-0.00024020,0.02073962,-0.99978488
1323446521.84564352,-0.00011511,0.02066226,-0.99978651
1323446521.89381146,-0.00047069,0.02066204,-0.99978641
1323446521.94476581,-0.00057802,0.02089399,-0.99978153
1323446521.99250579,-0.00045778,0.02048927,-0.99978997
1323446522.04306650,-0.00077111,0.02021431,-0.99979537
1323446522.09278536,-0.00058291,0.02032047,-0.99979335
1323446522.14464116,-0.00027041,0.02043022,-0.99979124
1323446522.20553112,-0.00026843,0.02046381,-0.99979056
1323446522.24561644,0.00120543,0.02216350,-0.99975363
1323446522.29378629,0.00115528,0.02198294,-0.99975768
1323446522.34465122,0.00126317,0.02212560,-0.99975440
1323446522.39253354,0.00100506,0.02205137,-0.99975633
1323446522.44452238,0.00118783,0.02213054,-0.99975438
1323446522.49250221,0.00146783,0.02219985,-0.99975248
1323446522.54449582,0.00191398,0.02413103,-0.99970697
1323446522.59684610,0.00198065,0.02408033,-0.99970806
1323446522.64453888,0.00206172,0.02409718,-0.99970749
1323446522.69364929,0.00200150,0.02423113,-0.99970438
1323446522.74452281,0.00191459,0.02415993,-0.99970627
1323446522.79264545,0.00242417,0.02447663,-0.99969746
1323446522.84189510,0.00233108,0.02421245,-0.99970412
1323446522.89365363,0.00205585,0.02416305,-0.99970592
1323446522.94452858,0.00198861,0.02407589,-0.99970816
1323446522.99253869,0.00181957,0.02395737,-0.99971133
1323446523.04555178,0.00209582,0.02399956,-0.99970977
1323446523.09352469,0.00211630,0.02405882,-0.99970830
1323446523.14149785,0.00208698,0.02404197,-0.99970877
1323446523.19297409,0.00208824,0.02405731,-0.99970840
1323446523.24451685,0.00222872,0.02406856,-0.99970783
1323446523.29343987,0.00164536,0.02324058,-0.99972855
1323446523.34557867,0.00185602,0.02319269,-0.99972929
1323446523.40232873,0.00196518,0.02314310,-0.99973023
1323446523.44238949,0.00209343,0.02333925,-0.99972541
